Regional Weather Roundup
Issued by NWS

Home | Current Version | Previous Version | Graphics & Text | Print | Product List | Glossary On
Versions: 1 2 3 4 5 6 7 8 9 10 11 12 13 14 15 16 17 18 19 20 21 22 23 24 25 26 27 28 29 30 31 32 33 34 35 36 37 38 39 40 41 42 43 44 45 46 47 48 49 50
000
ASUS43 KMPX 160210
RWRMN
WEATHER ROUNDUP FOR MINNESOTA
NATIONAL WEATHER SERVICE TWIN CITIES/CHANHASSEN MN
900 PM CDT TUE APR 15 2014


NOTE: "FAIR" INDICATES FEW OR NO CLOUDS BELOW 12,000 FEET WITH NO
SIGNIFICANT WEATHER AND/OR OBSTRUCTIONS TO VISIBILITY. N/A MEANS
CURRENT SKY AND/OR WEATHER CONDITIONS ARE NOT AVAILABLE.

MNZ060>063-068>070-160300-
   Twin Cities Metro

CITY           SKY/WX    TMP DP  RH WIND       PRES   REMARKS
TWIN CITIES    CLOUDY    35   8  32 S10       30.08R WCI  27
ST PAUL        CLOUDY    34   8  33 S9        30.09R WCI  27
CRYSTAL        CLOUDY    36   6  28 S6        30.06R
EDEN PRAIRIE   CLOUDY    34   8  33 SE8       30.07R WCI  27
LAKEVILLE      CLOUDY    32  10  40 CALM      30.08R
SOUTH ST PAUL  CLOUDY    37   9  30 S6        30.08R
LAKE ELMO      CLOUDY    32  10  40 SE5       30.09R WCI  27
$$
MNZ001>005-007-008-013>017-022>024-027-028-160300-
   Northwest Minnesota

CITY           SKY/WX    TMP DP  RH WIND       PRES   REMARKS
BEMIDJI        MOCLDY    27   2  33 E6        30.02R WCI  20
HALLOCK        CLOUDY    28  10  47 E9        30.05R WCI  20
ROSEAU         CLEAR     25  10  54 E8        30.06R WCI  16
WARROAD        CLEAR     19  10  68 E6        30.07R WCI  11
THIEF RVR FALL PTCLDY    28  10  47 E6        30.03R WCI  22
CROOKSTON      CLOUDY    30  12  47 E6        30.03R WCI  24
FOSSTON        MOCLDY    27   9  46 NE9       30.02R WCI  17
DETROIT LAKES  CLOUDY    32  12  43 SE5       30.00R WCI  27
MOORHEAD       CLOUDY    34  12  40 SE9       29.99F WCI  26
PARK RAPIDS    CLOUDY    30   4  33 S3        30.00R
$$
MNZ006-009>011-018-025>026-160300-
   North Central Minnesota

CITY           SKY/WX    TMP DP  RH WIND       PRES   REMARKS
BAUDETTE       CLEAR     21   7  54 N5        30.07R WCI  15
FLAG ISLAND    CLEAR     19   7  58 CALM      30.07R
INTL FALLS     CLEAR     23   6  48 E5        30.06R WCI  17
WASKISH        PTCLDY    21  12  68 CALM      30.05R
BIG FORK       CLEAR     25   7  46 CALM      30.05R
LONGVILLE      PTCLDY    27   9  46 CALM      30.04R
GRAND RAPIDS   PTCLDY    25  -2  30 CALM      30.04R
CRANE LAKE     CLEAR     16   5  62 CALM      30.09R
ORR            CLEAR     21   1  42 CALM      30.03R
COOK           CLEAR     23   3  42 CALM      30.05R
$$
MNZ012-019>021-037-160300-
   Northeast Minnesota

CITY           SKY/WX    TMP DP  RH WIND       PRES   REMARKS
DULUTH         PTCLDY    27   5  39 S6        30.05R WCI  20
ELY            CLEAR     23   1  39 NE3       30.06R
HIBBING        CLEAR     22  12  65 CALM      30.04R
EVELETH        CLEAR     25   3  39 CALM      30.05R
DULUTH HARBOR  CLEAR     30  10  43 CALM      30.10R
TWO HARBORS    CLEAR     25   9  50 CALM      30.05R
SILVER BAY     CLEAR     21  12  68 CALM      30.06R
GRAND MARAIS     N/A     26  14  60 NW3       30.10R
G MARAIS ARPRT CLEAR     19  -4  35 CALM      30.03R
$$
MNZ029>031-032-039>041-046>048-054>057-064-160300-
   West Central Minnesota

CITY           SKY/WX    TMP DP  RH WIND       PRES   REMARKS
FERGUS FALLS   CLOUDY    30   9  40 E9        29.94F WCI  22
WHEATON        CLOUDY    36  18  48 E16       29.95S
MORRIS         CLOUDY    34  10  37 E17       29.94S WCI  23
ALEXANDRIA     CLOUDY    32   9  38 E14       29.98F WCI  22
ELBOW LAKE     CLOUDY    32  15  48 E13       29.96S WCI  22
WADENA         CLOUDY    28  12  50 SE5       30.01R WCI  23
GLENWOOD       CLOUDY    30  10  43 E12       29.99R WCI  21
APPLETON       CLOUDY    36  12  38 E18       29.93S
BENSON         CLOUDY    34  10  37 SE12      29.96S WCI  25
ORTONVILLE     CLOUDY    36  10  35 E20G25    29.90S
MADISON        CLOUDY    37  18  44 E18       29.91S
WILLMAR        FAIR      34  12  40 E13       30.00S WCI  25
$$
MNZ033>034-036-042>043-049>051-058-059-160300-
   Central Minnesota

CITY           SKY/WX    TMP DP  RH WIND       PRES   REMARKS
ST CLOUD       CLOUDY    34   7  32 S6        30.05R WCI  29
SAUK CENTRE    CLOUDY    32  10  40 E7        30.01S WCI  25
PAYNESVILLE    CLOUDY    32   7  35 E9        30.02R WCI  24
AITKIN         PTCLDY    28   5  37 CALM      30.04R
PINE RIVER     MOCLDY    27   9  46 E3        30.06R
BRAINERD       CLOUDY    32   6  33 SE6       30.05R WCI  26
STAPLES        CLOUDY    28   7  40 SE5       30.03R WCI  23
LONG PRAIRIE   CLOUDY    30  12  47 CALM      30.02R
LITTLE FALLS   CLOUDY    32  10  40 CALM      30.05R
LITCHFIELD     CLOUDY    34  12  40 E9        30.03R WCI  26
BUFFALO        CLOUDY    34   8  34 CALM      30.07R
MAPLE LAKE     CLOUDY    34  12  40 CALM      30.06R
$$
MNZ037-044-045-052-053-160300-
   East Central Minnesota

CITY           SKY/WX    TMP DP  RH WIND       PRES   REMARKS
PRINCETON      CLOUDY    34   7  32 CALM      30.07R
MORA           CLOUDY    28  10  47 CALM      30.08R
CAMBRIDGE      PTCLDY    32  12  43 CALM      30.06R
RUSH CITY      CLOUDY    29  13  50 CALM      30.07R
MOOSE LAKE     PTCLDY    28   3  34 CALM      30.05R
HINCKLEY       FAIR      30  10  43 CALM      30.07R
CLOQUET        PTCLDY    28  -4  24 CALM      30.06R
MCGREGOR       CLEAR     28   9  43 CALM      30.06R
$$
MNZ071>073-080-081-089-090-097-098-160300-
   Southwest Minnesota

CITY           SKY/WX    TMP DP  RH WIND       PRES   REMARKS
MONTEVIDEO     CLOUDY    34  14  44 SE16G25   29.95S WCI  23
GRANITE FALLS  MOCLDY    35  12  39 E16       29.95S WCI  25
CANBY          MOCLDY    36  20  51 E14       29.89S
MARSHALL       MOCLDY    37  18  44 SE20      29.90R
REDWOOD FALLS  CLOUDY    36  12  37 E13       29.96F
OLIVIA         CLOUDY    34  16  47 E14G20    29.98R WCI  24
PIPESTONE      PTCLDY    37  23  56 SE16      29.82F
WINDOM         MOCLDY    36  23  60 E13       29.94F
WORTHINGTON    MOCLDY    36  21  55 E15       29.91S
JACKSON        MOCLDY    36  23  60 SE14      29.95S
TRACY          MOCLDY    37  21  52 SE14      29.91S
SLAYTON        MOCLDY    36  23  59 SE21      29.88F
$$
MNZ065>067-074>077-082>085-091>093-160300-
   South Central Minnesota

CITY           SKY/WX    TMP DP  RH WIND       PRES   REMARKS
MANKATO        CLOUDY    34  16  47 SE9       30.05S WCI  26
NEW ULM        MOCLDY    36  12  38 E10       30.00F
ST JAMES       CLOUDY    37  19  48 E10       30.00F
FAIRMONT       CLOUDY    36  21  55 SE13      30.00F
GLENCOE        CLOUDY    33  12  41 E8        30.03S WCI  26
FARIBAULT      CLOUDY    37   9  30 SE5       30.08R
OWATONNA       CLOUDY    34  16  47 SE5       30.07R WCI  30
WASECA         MOCLDY    34  23  64 SE7       30.07S WCI  28
ALBERT LEA     CLOUDY    34  18  51 SE5       30.05S WCI  30
$$
MNZ078>079-086>088-094>096-160300-
   Southeast Minnesota

CITY           SKY/WX    TMP DP  RH WIND       PRES   REMARKS
ROCHESTER      MOCLDY    31  20  63 S3        30.08R
RED WING       CLOUDY    36  12  38 S3        30.09R
STANTON        MOCLDY    34  17  51 S5        30.07R WCI  30
DODGE CENTER   MOCLDY    34  21  60 SE5       30.07R WCI  30
WINONA         MOCLDY    34  19  55 CALM      30.12R
AUSTIN         PTCLDY    30  18  59 CALM      30.07R
PRESTON        PTCLDY    32  18  57 CALM      30.09R
$$
ABBREVIATIONS USED IN REMARKS
   TC - TEMPERATURES IN CELSIUS
  WCI - WIND CHILL INDEX
   HX - HEAT INDEX
  VSB - VISIBILITY
$$



USA.gov is the U.S. government's official web portal to all federal, state and local government web resources and services.